Time,B instrument,Bx,By,Bz,sigma B,Ion instrument,Status,Tp_par,Tp_perp,carrot,r_sun,clat,clong,earth_he_angle,n_p,vp_x,vp_y,vp_z,vth_p_par,vth_p_perp
1980-01-20 00:00:30,1,-6.98571,3.08571,1.82857,0.33197,1,1,161691.0,127634.0,1691,0.88652217,2.9321699,348.0835,292.78271,2.61196,406.343,-38.9056,-38.2415,51.6655,45.903
1980-01-20 00:01:51,1,-6.82857,3.15714,1.65714,0.274791,1,1,36214.0,122636.0,1691,0.88652611,2.9321003,348.07153,292.78247,1.69621,403.115,-36.5176,-31.203,24.451,44.9952
1980-01-20 00:03:12,1,-7.1,2.95,2.0,0.278388,1,1,70534.4,126715.0,1691,0.88653409,2.931963,348.05957,292.78223,1.92888,407.385,-36.412,-33.4902,34.1239,45.7375
1980-01-20 00:04:33,1,-7.125,2.9875,2.25,0.260708,1,1,40817.4,106513.0,1691,0.88653809,2.9318943,348.04785,292.78223,1.69144,400.622,-41.1336,-26.2947,25.9585,41.9333
1980-01-20 00:05:54,1,-6.625,3.1125,2.45,0.288043,1,1,167182.0,157625.0,1691,0.88654208,2.9318256,348.03198,292.78198,2.58733,409.901,-41.523,-23.8434,52.5355,51.0118
1980-01-20 00:07:15,1,-6.9,3.275,2.75,0.222205,1,1,29824.5,97345.3,1691,0.88655007,2.9316883,348.02002,292.78174,1.66039,402.308,-39.4277,-19.8901,22.1894,40.0881
1980-01-20 00:08:36,1,-6.94286,2.82857,3.25714,0.209956,1,1,115931.0,117507.0,1691,0.88655406,2.9316196,348.0083,292.78174,2.74377,425.866,-45.7712,-16.2649,43.7479,44.0442
1980-01-20 00:09:57,1,-6.85,3.1,3.1,0.339116,1,1,136433.0,121930.0,1691,0.88655806,2.931551,347.99658,292.78174,2.76966,420.473,-44.4507,-19.8637,47.4589,44.8657
1980-01-20 00:11:18,1,-6.91429,3.15714,2.97143,0.338062,1,1,92831.7,120667.0,1691,0.88656598,2.9314127,347.98462,292.78149,2.58423,422.035,-41.5915,-20.3553,39.1477,44.6327
1980-01-20 00:12:39,1,-6.82857,3.24286,2.85714,0.241593,1,1,127670.0,148489.0,1691,0.88656998,2.931344,347.97266,292.78125,2.62238,423.116,-42.1651,-15.1819,45.9095,49.5113
1980-01-20 00:14:00,1,-6.875,3.1375,2.85,0.310996,1,1,172680.0,127267.0,1691,0.88657796,2.9312067,347.96069,292.78101,2.48564,413.094,-37.4689,-17.9273,53.3924,45.8369
1980-01-20 00:15:21,1,-6.6,3.4,2.75,0.259808,1,1,127536.0,157942.0,1691,0.88658196,2.931138,347.94507,292.78101,2.61661,419.992,-37.4429,-21.3204,45.8854,51.063
1980-01-20 00:16:42,1,-6.85714,3.28571,2.91429,0.231234,1,1,99221.9,127989.0,1691,0.88658595,2.9310694,347.93311,292.78076,2.19179,406.71,-35.6739,-22.2948,40.4726,45.9668
1980-01-20 00:18:03,1,-6.7,3.725,3.05,0.326917,1,1,27709.5,79283.0,1691,0.88659388,2.930932,347.92114,292.78052,1.35455,400.333,-32.6842,-17.7286,21.3881,36.1783
1980-01-20 00:19:24,1,-6.71429,3.55714,3.04286,0.367007,1,1,71880.2,125517.0,1691,0.88659787,2.9308634,347.90942,292.78052,1.65252,405.991,-31.3349,-22.196,34.4479,45.5207
1980-01-20 00:20:45,1,-6.925,3.675,3.0875,0.268968,1,1,33389.7,108142.0,1691,0.88660187,2.9307947,347.89771,292.78052,1.44329,400.583,-30.7866,-19.2356,23.4782,42.2527
1980-01-20 00:22:06,1,-6.7125,3.8375,2.4125,0.273004,1,1,204083.0,143241.0,1691,0.88660985,2.9306564,347.88574,292.78027,2.49684,409.606,-35.2546,-23.4066,58.0445,48.6287
1980-01-20 00:23:27,1,-6.7,3.8375,2.675,0.243349,1,1,26243.9,72840.9,1691,0.88661385,2.9305878,347.86987,292.78003,1.23942,403.115,-29.0324,-17.4514,20.8148,34.6773
1980-01-20 00:24:48,1,-6.62857,3.81429,3.01429,0.30034,1,1,93058.4,120534.0,1691,0.88661784,2.9305191,347.85815,292.78003,1.76416,414.131,-30.2375,-15.4236,39.1955,44.608
1980-01-20 00:26:09,1,-6.82857,3.5,2.78571,0.273302,1,1,27607.1,87076.1,1691,0.88662577,2.9303818,347.84619,292.77979,1.27555,402.102,-28.0346,-19.8616,21.3486,37.9147
1980-01-20 00:27:30,1,-6.3,3.92857,3.1,0.218529,1,1,37442.0,87925.3,1691,0.88662976,2.9303131,347.83423,292.77954,1.51957,416.345,-31.4195,-20.3697,24.8621,38.0991
1980-01-20 00:28:51,1,-6.4,3.95,3.0,0.269258,1,1,64254.3,135784.0,1691,0.88663375,2.9302444,347.82251,292.77954,1.96294,412.066,-34.9185,-18.8141,32.5693,47.3459
1980-01-20 00:30:12,1,-6.48571,3.92857,3.15714,0.232993,1,1,53705.3,109327.0,1691,0.88664174,2.9301071,347.81055,292.7793,1.54039,417.371,-28.3636,-23.203,29.776,42.4835
1980-01-20 00:31:33,1,-6.25714,3.98571,2.92857,0.244949,1,1,209573.0,136615.0,1691,0.88664573,2.9300375,347.79492,292.7793,2.3659,415.033,-37.199,-26.687,58.8201,47.4905
1980-01-20 00:32:54,1,-6.58571,3.75714,2.31429,0.116058,1,1,72856.8,120018.0,1691,0.88664973,2.9299688,347.78296,292.77905,1.5761,403.582,-28.1413,-24.1554,34.6811,44.5124
1980-01-20 00:34:15,1,-6.27143,3.81429,2.21429,0.432836,1,1,50129.3,102124.0,1691,0.88665771,2.9298315,347.771,292.77881,1.44954,406.69,-24.0352,-21.4432,28.7676,41.0603
1980-01-20 00:35:36,-1,nan,nan,nan,nan,1,4,nan,nan,1691,0.88666165,2.9297628,347.75928,292.77881,nan,nan,nan,nan,nan,nan
1980-01-20 00:36:57,1,-6.3125,3.925,2.1,0.274716,1,1,43720.9,105963.0,1691,0.88666564,2.9296942,347.74731,292.77856,1.48089,404.19,-29.7847,-21.3676,26.866,41.825
1980-01-20 00:38:18,1,-6.14286,4.44286,2.52857,0.289968,1,1,228736.0,157559.0,1691,0.88667363,2.9295568,347.73535,292.77832,2.54802,417.691,-31.2117,-20.9812,61.4504,51.0011
1980-01-20 00:39:39,1,-6.25,4.45,2.4,0.234521,1,1,246064.0,155303.0,1691,0.88667762,2.9294882,347.72363,292.77832,2.45387,416.641,-29.4226,-23.1035,63.7356,50.6347
1980-01-20 00:41:00,1,-5.98571,4.58571,2.58571,0.228571,1,1,240049.0,161148.0,1691,0.88668561,2.9293499,347.70776,292.77808,2.68475,420.294,-32.1381,-22.4741,62.9517,51.5787
1980-01-20 00:42:21,1,-6.2625,4.4,2.35,0.24463,1,1,349806.0,152189.0,1691,0.8866896,2.9292812,347.69604,292.77808,2.53059,414.265,-33.4135,-19.661,75.9926,50.1244
1980-01-20 00:43:42,1,-5.975,4.675,2.35,0.297909,1,1,304055.0,196640.0,1691,0.8866936,2.9292126,347.68408,292.77783,2.88659,426.24,-37.0101,-28.8939,70.849,56.9762
1980-01-20 00:45:03,1,-6.45,4.075,1.9,0.290474,1,1,240707.0,152663.0,1691,0.88670152,2.9290752,347.67212,292.77759,2.53539,417.327,-32.4682,-25.3341,63.038,50.2025
1980-01-20 00:46:24,1,-6.62857,4.28571,1.9,0.221313,1,1,174323.0,171931.0,1691,0.88670552,2.9290066,347.6604,292.77759,2.3754,407.189,-26.576,-30.4994,53.6458,53.2764
1980-01-20 00:47:45,1,-6.32857,4.25714,1.61429,0.354562,1,1,37552.2,98297.9,1691,0.88670951,2.9289379,347.64844,292.77734,1.15576,404.263,-18.7852,-23.242,24.8986,40.2838
1980-01-20 00:49:06,1,-6.02857,4.67143,2.12857,0.338665,1,1,176572.0,166703.0,1691,0.8867175,2.9288006,347.63281,292.77734,2.2704,418.281,-34.563,-28.8583,53.9906,52.4602
1980-01-20 00:50:27,1,-6.2,4.575,1.9,0.227761,1,1,324595.0,170845.0,1691,0.88672149,2.9287319,347.62085,292.7771,3.11446,414.59,-35.6389,-25.8812,73.203,53.1079
1980-01-20 00:51:48,1,-6.02857,4.65714,1.78571,0.311677,1,1,236491.0,131323.0,1691,0.88672549,2.9286623,347.60913,292.7771,2.38721,412.873,-33.5963,-29.2038,62.4834,46.5617
1980-01-20 00:53:09,1,-6.2,4.4125,2.05,0.28477,1,1,219071.0,176056.0,1691,0.88673341,2.928525,347.59717,292.77686,2.64167,417.227,-33.9665,-28.8923,60.1381,53.9117
1980-01-20 00:54:30,1,-5.84286,4.55714,1.5,0.271052,1,1,197165.0,170248.0,1691,0.88673741,2.9284563,347.58521,292.77661,2.3538,408.448,-26.0419,-29.2751,57.0522,53.0151
1980-01-20 00:55:51,-1,nan,nan,nan,nan,1,4,nan,nan,1691,0.8867414,2.9283876,347.57349,292.77661,nan,nan,nan,nan,nan,nan
1980-01-20 00:57:12,1,-6.2,4.9,1.45,0.132288,1,1,200625.0,131834.0,1691,0.88674939,2.9282503,347.55762,292.77637,2.4931,419.24,-35.3305,-24.0479,57.5507,46.6522
1980-01-20 00:58:33,1,-6.2,4.9,1.6,0.173205,1,1,352800.0,135201.0,1691,0.88675338,2.9281816,347.54565,292.77612,2.80683,418.255,-35.2521,-24.0606,76.3172,47.2442
1980-01-20 00:59:54,1,-6.175,4.9,1.7,0.298957,1,1,172238.0,146240.0,1691,0.88675737,2.928113,347.53394,292.77612,2.33733,423.743,-41.0626,-26.0707,53.3239,49.1349
1980-01-20 01:01:15,1,-6.05,4.7,2.05,0.33541,1,1,194428.0,129326.0,1691,0.8867653,2.9279747,347.52197,292.77588,2.26324,418.282,-31.2521,-23.5832,56.6549,46.2063
1980-01-20 01:02:36,1,-5.9375,4.825,2.15,0.355976,1,1,155490.0,123378.0,1691,0.88676929,2.927906,347.51025,292.77588,2.66022,427.598,-41.0467,-20.8333,50.6651,45.1313
1980-01-20 01:03:57,1,-5.94286,5.07143,2.18571,0.220389,1,1,121747.0,139441.0,1691,0.88677329,2.9278374,347.49829,292.77563,2.60923,431.951,-40.1488,-21.1816,44.8319,47.9792
1980-01-20 01:05:18,1,-5.95,5.0,2.15,0.287228,1,1,105095.0,95584.7,1691,0.88678122,2.9277,347.48242,292.77539,2.20611,432.621,-39.7701,-20.1694,41.6532,39.7239
1980-01-20 01:06:39,1,-6.05,5.0,1.9,0.180278,1,1,95045.0,116561.0,1691,0.88678521,2.9276314,347.4707,292.77539,2.08414,426.602,-41.4816,-19.6576,39.6116,43.8666
1980-01-20 01:08:00,1,-6.075,4.925,1.9,0.23184,1,1,97776.2,118753.0,1691,0.8867932,2.927494,347.45874,292.77515,2.26627,426.081,-41.8819,-20.4962,40.1767,44.2772
1980-01-20 01:09:21,1,-6.0375,5.1875,1.65,0.313748,1,1,156908.0,122313.0,1691,0.88679719,2.9274254,347.44702,292.77515,2.46463,427.584,-46.6954,-19.7276,50.8957,44.936
1980-01-20 01:10:42,1,-6.175,4.8125,1.95,0.403694,1,1,104214.0,139792.0,1691,0.88680112,2.9273567,347.43506,292.7749,2.34675,424.951,-43.7622,-20.8704,41.4784,48.0396
1980-01-20 01:12:03,1,-5.9,5.0375,1.65,0.199609,1,1,193714.0,157958.0,1691,0.88680911,2.9272184,347.4231,292.77466,2.5819,421.683,-42.3148,-21.0776,56.5508,51.0656
1980-01-20 01:13:24,1,-6.1,4.8875,1.8,0.261904,1,1,194785.0,153368.0,1691,0.8868131,2.9271498,347.41138,292.77466,2.60879,425.49,-45.81,-20.9727,56.7068,50.3182
1980-01-20 01:14:45,1,-6.1375,4.4875,2.15,0.220085,1,1,202678.0,143701.0,1691,0.8868171,2.9270811,347.39551,292.77441,2.41566,414.802,-46.5714,-12.2468,57.8444,48.7065
1980-01-20 01:16:06,1,-6.6,3.9625,2.6125,0.361853,1,1,174386.0,161055.0,1691,0.88682503,2.9269438,347.38354,292.77417,2.41017,421.097,-44.8514,-17.0005,53.6554,51.5638
1980-01-20 01:17:27,1,-6.68571,4.02857,2.81429,0.253948,1,1,301323.0,159294.0,1691,0.88682902,2.9268751,347.37183,292.77417,2.78341,427.591,-54.221,-20.5485,70.53,51.2811
1980-01-20 01:18:48,1,-6.1,4.125,2.75,0.272718,1,1,478668.0,193150.0,1691,0.88683301,2.9268064,347.35986,292.77393,2.92556,417.315,-45.2949,-8.30395,88.8946,56.4683
1980-01-20 01:20:09,1,-6.45,4.275,2.85,0.471036,1,1,270009.0,167491.0,1691,0.88684094,2.9266691,347.34814,292.77393,2.34433,429.473,-57.0116,-17.3441,66.7647,52.5839
1980-01-20 01:21:30,1,-5.2,5.8875,1.9,0.333307,1,1,58556.8,104644.0,1691,0.88684493,2.9265995,347.33618,292.77368,2.25815,427.876,-36.8881,-21.0527,31.0919,41.5637
1980-01-20 01:22:51,1,-5.15,5.9,1.55,0.353553,1,1,61417.0,104647.0,1691,0.88684893,2.9265308,347.32056,292.77368,2.2669,428.735,-38.6609,-20.1648,31.8421,41.5643
1980-01-20 01:24:12,1,-5.3,5.8375,1.4125,0.321617,1,1,67444.1,111009.0,1691,0.88685685,2.9263935,347.30859,292.77344,2.36145,427.943,-41.0182,-23.8215,33.368,42.8093
1980-01-20 01:25:33,1,-5.275,5.5625,1.7375,0.281181,1,1,91250.1,114153.0,1691,0.88686085,2.9263248,347.29663,292.77319,2.48552,422.886,-43.3078,-20.4973,38.8128,43.4111
1980-01-20 01:26:54,1,-5.52857,5.64286,1.62857,0.294161,1,1,67979.9,87217.7,1691,0.88686484,2.9262562,347.28491,292.77319,2.15567,426.279,-39.5057,-21.3296,33.5003,37.9455
1980-01-20 01:28:15,1,-5.2,5.75,1.8,0.193649,1,1,62613.4,101331.0,1691,0.88687277,2.9261189,347.27295,292.77295,2.09011,429.623,-32.4109,-23.0467,32.1508,40.9006
1980-01-20 01:29:36,1,-5.2,5.7625,1.5625,0.356634,1,1,64850.9,106384.0,1691,0.88687676,2.9260502,347.26123,292.77295,2.15623,430.649,-37.1537,-22.2135,32.7202,41.9079
1980-01-20 01:30:57,1,-5.6875,5.475,2.075,0.409077,1,1,62512.0,107589.0,1691,0.88688076,2.9259806,347.24536,292.77271,2.48665,425.567,-41.7561,-16.4768,32.1247,42.1445
1980-01-20 01:32:18,1,-5.475,5.825,1.525,0.328824,1,1,71097.9,114578.0,1691,0.88688874,2.9258432,347.2334,292.77246,2.12618,424.467,-36.4317,-22.6988,34.2599,43.4919
1980-01-20 01:33:39,1,-5.3875,5.7875,1.5625,0.356414,1,1,69966.8,124965.0,1691,0.88689268,2.9257746,347.22168,292.77246,2.25289,420.0,-35.8187,-21.9615,33.9863,45.4205
1980-01-20 01:35:00,1,-5.32857,5.62857,1.81429,0.191663,1,1,57857.6,93546.7,1691,0.88690066,2.9256372,347.20972,292.77222,2.03532,419.433,-36.3413,-19.0835,30.9057,39.2981
1980-01-20 01:36:21,1,-5.38571,5.87143,1.57143,0.296923,1,1,63088.4,114434.0,1691,0.88690466,2.9255686,347.19775,292.77197,2.44217,422.806,-36.8125,-24.1488,32.2725,43.4646
1980-01-20 01:37:42,1,-5.575,5.6,2.1125,0.361205,1,1,56502.1,92678.6,1691,0.88690865,2.9254999,347.18604,292.77197,2.23706,421.336,-39.5026,-15.0664,30.5415,39.1154
1980-01-20 01:39:03,1,-5.35714,5.77143,2.27143,0.208982,1,1,71239.3,107044.0,1691,0.88691658,2.9253626,347.17407,292.77173,2.39086,427.768,-35.6297,-14.1963,34.294,42.0376
1980-01-20 01:40:24,1,-5.35,5.725,1.9625,0.238157,1,1,58263.9,80279.5,1691,0.88692057,2.9252939,347.15845,292.77173,2.42577,423.743,-36.0375,-18.395,31.014,36.4049
1980-01-20 01:41:45,1,-5.45,5.7,1.9875,0.271282,1,1,83017.0,116433.0,1691,0.88692456,2.9252243,347.14648,292.77148,2.3778,420.138,-43.3109,-17.6811,37.0204,43.8426
1980-01-20 01:43:06,1,-5.5,5.65,1.85,0.212132,1,1,65122.8,111204.0,1691,0.88693249,2.925087,347.13452,292.77124,2.23152,424.823,-41.33,-19.7233,32.7887,42.8468
1980-01-20 01:44:27,1,-5.65,5.5,1.85,0.234521,1,1,109555.0,111683.0,1691,0.88693649,2.9250183,347.1228,292.77124,2.42915,417.251,-40.8541,-18.1189,42.5278,42.9389
1980-01-20 01:45:48,1,-5.12857,5.97143,2.31429,0.456249,1,1,96456.4,91887.8,1691,0.88694048,2.9249496,347.11084,292.771,2.25041,425.342,-39.6668,-13.96,39.9046,38.9481
1980-01-20 01:47:09,1,-5.35714,5.75714,2.15714,0.217594,1,1,82088.9,100392.0,1691,0.88694841,2.9248123,347.09888,292.77075,2.39071,421.483,-39.7104,-19.3072,36.8129,40.7106
1980-01-20 01:48:30,1,-5.61429,5.28571,1.55714,0.291373,1,1,83860.2,111368.0,1691,0.8869524,2.9247437,347.08325,292.77075,2.29862,419.272,-39.8876,-20.9342,37.208,42.8784
1980-01-20 01:49:51,1,-5.41429,5.42857,1.41429,0.33197,1,1,83050.3,126065.0,1691,0.88695639,2.924675,347.07153,292.77075,2.46138,414.654,-42.2649,-18.5342,37.0278,45.62
1980-01-20 01:51:12,1,-5.55,5.4125,1.6375,0.394889,1,1,84583.8,94640.3,1691,0.88696432,2.9245367,347.05957,292.77051,2.23779,425.11,-40.8342,-27.1375,37.3681,39.5272
1980-01-20 01:52:33,1,-5.85,5.25,2.15,0.308221,1,1,92403.1,120628.0,1691,0.88696831,2.924468,347.04761,292.77026,2.42084,416.382,-43.259,-16.8021,39.0572,44.6254
1980-01-20 01:53:54,1,-6.0,5.125,2.3,0.294746,1,1,63442.2,103524.0,1691,0.88697231,2.9243994,347.03589,292.77026,2.19228,419.639,-43.637,-12.4849,32.3629,41.3408
1980-01-20 01:55:15,1,-5.6875,5.3625,1.85,0.297384,1,1,91785.0,106767.0,1691,0.8869803,2.924262,347.02393,292.77002,2.39718,422.086,-44.153,-18.5811,38.9264,41.9833
1980-01-20 01:56:36,1,-6.01429,5.01429,2.41429,0.263416,1,1,69603.8,81125.2,1691,0.88698423,2.9241934,347.00806,292.76978,2.10762,421.089,-47.9252,-17.1738,33.898,36.5962
1980-01-20 01:57:57,1,-5.9,5.05,2.7,0.193649,1,1,83875.4,134672.0,1691,0.88698822,2.9241247,346.99634,292.76978,2.75813,422.615,-46.2168,-18.8677,37.2113,47.1516
1980-01-20 01:59:18,1,-5.7125,5.1,2.85,0.289126,1,1,65814.3,84134.4,1691,0.88699621,2.9239874,346.98438,292.76953,2.32565,421.061,-44.1451,-11.9964,32.9624,37.2687
1980-01-20 02:00:39,1,-5.925,5.1,2.95,0.311247,1,1,68253.2,90405.6,1691,0.8870002,2.9239187,346.97266,292.76953,2.28491,420.988,-44.9399,-16.1239,33.5675,38.6328
1980-01-20 02:02:00,1,-5.7875,5.0625,3.3,0.225693,1,1,67068.0,107866.0,1691,0.88700813,2.9237804,346.96069,292.76929,2.6671,421.108,-44.838,-10.0426,33.2748,42.1988
1980-01-20 02:03:21,1,-5.75,5.0875,3.5,0.161536,1,1,96635.0,96693.4,1691,0.88701212,2.9237118,346.94873,292.76904,2.4466,425.168,-44.249,-6.44414,39.9416,39.9536
1980-01-20 02:04:42,1,-5.8125,5.0,3.75,0.275851,1,1,83137.0,98580.5,1691,0.88701606,2.9236431,346.93701,292.76904,2.69234,420.865,-45.4149,-0.198004,37.0472,40.3416
1980-01-20 02:06:03,1,-5.85714,4.61429,3.27143,0.30706,1,1,91759.6,112124.0,1691,0.88702404,2.9235058,346.92114,292.7688,2.50703,424.584,-48.9739,-9.69382,38.921,43.0237
1980-01-20 02:07:24,1,-5.48571,5.01429,2.92857,0.344638,1,1,57062.4,88027.2,1691,0.88702798,2.9234371,346.90918,292.76855,2.0613,419.944,-39.8316,-8.85917,30.6926,38.1212
1980-01-20 02:08:45,1,-5.74286,4.68571,3.04286,0.178429,1,1,90995.2,116289.0,1691,0.88703197,2.9233685,346.89746,292.76855,2.51134,415.52,-48.3972,-7.70112,38.7585,43.8154
1980-01-20 02:10:06,1,-5.5,4.975,2.45,0.392906,1,1,58453.1,87226.9,1691,0.88703996,2.9232311,346.8855,292.76831,2.14932,421.314,-43.8416,-10.9134,31.0643,37.9475
1980-01-20 02:11:27,1,-5.7125,4.7625,3.1,0.241738,1,1,87750.6,118412.0,1691,0.88704389,2.9231625,346.87378,292.76831,2.24216,414.701,-44.5615,-5.22785,38.0612,44.2136
1980-01-20 02:12:48,1,-5.62857,4.92857,3.04286,0.303718,1,1,103092.0,113146.0,1691,0.88704789,2.9230938,346.86182,292.76807,1.99863,420.88,-38.0751,-9.12373,41.2545,43.2193
1980-01-20 02:14:09,1,-5.8375,4.7625,3.0,0.295275,1,1,107410.0,127893.0,1691,0.88705581,2.9229565,346.84595,292.76782,2.45107,416.043,-44.294,-1.6475,42.1096,45.9496
1980-01-20 02:15:30,1,-5.7625,4.95,2.75,0.239466,1,1,65791.2,97875.3,1691,0.88705981,2.9228878,346.83423,292.76782,2.38088,417.507,-40.7459,-8.70672,32.9566,40.1971
1980-01-20 02:16:51,1,-5.85,4.65,2.9,0.254951,1,1,77288.5,104491.0,1691,0.8870638,2.9228182,346.82227,292.76758,2.67835,424.77,-39.9876,-9.02596,35.7203,41.5335
1980-01-20 02:18:12,1,-5.84286,4.71429,2.75714,0.257143,1,1,50339.7,73664.8,1691,0.88707173,2.9226809,346.8103,292.76733,2.15929,419.348,-41.7923,-8.20572,28.8279,34.8729
1980-01-20 02:19:33,1,-5.9625,4.2875,3.2,0.270994,1,1,93065.9,106548.0,1691,0.88707572,2.9226122,346.79858,292.76733,2.54162,419.865,-48.1948,-5.86895,39.197,41.9402
1980-01-20 02:20:54,1,-6.14286,4.14286,3.38571,0.27848,1,1,46133.0,79052.7,1691,0.88707972,2.9225435,346.78687,292.76733,2.049,418.542,-51.0797,-5.05779,27.5971,36.1257
1980-01-20 02:22:15,1,-6.15714,4.31429,2.81429,0.349343,1,1,77581.1,81939.2,1691,0.88708764,2.9224062,346.771,292.76709,2.49095,417.806,-49.5427,-6.04733,35.7879,36.7793
1980-01-20 02:23:36,1,-6.225,4.175,2.8,0.314245,1,1,68066.0,96628.0,1691,0.88709164,2.9223375,346.75903,292.76685,2.4992,421.642,-49.3582,-3.5836,33.5215,39.9401
1980-01-20 02:24:57,1,-5.875,4.375,2.7,0.314245,1,1,77880.2,100516.0,1691,0.88709557,2.9222689,346.74731,292.76685,2.32762,417.73,-46.2375,-4.62728,35.8568,40.7356
1980-01-20 02:26:18,1,-5.825,4.6125,2.75,0.245904,1,1,68076.1,82735.9,1691,0.88710356,2.9221315,346.73535,292.7666,2.23029,423.019,-43.0196,-3.45601,33.524,36.9577
1980-01-20 02:27:39,1,-5.81429,4.48571,2.58571,0.321984,1,1,69893.0,121898.0,1691,0.88710749,2.9220629,346.72339,292.76636,2.71014,419.599,-41.3646,-8.06077,33.9684,44.8598
1980-01-20 02:29:00,1,-5.74286,4.68571,3.1,0.110657,1,1,61529.3,88091.7,1691,0.88711548,2.9219255,346.71167,292.76636,2.41812,419.476,-35.6241,-4.5907,31.8712,38.1351
1980-01-20 02:30:21,1,-5.775,4.5875,3.15,0.279229,1,1,66908.2,106416.0,1691,0.88711947,2.9218569,346.6958,292.76611,2.47584,415.82,-41.0242,-3.95216,33.2351,41.9141
1980-01-20 02:31:42,1,-5.82857,4.65714,2.7,0.156492,1,1,47398.1,74473.5,1691,0.88712341,2.9217873,346.68408,292.76611,2.06019,420.117,-34.4009,-2.66544,27.973,35.0638
1980-01-20 02:33:03,1,-5.91429,4.48571,2.47143,0.318799,1,1,83196.6,102714.0,1691,0.88713139,2.9216499,346.67212,292.76587,2.62563,418.364,-40.6907,-7.51611,37.0604,41.1787
1980-01-20 02:34:24,1,-5.82857,4.47143,2.47143,0.338665,1,1,57931.4,81037.3,1691,0.88713533,2.9215813,346.66016,292.76563,2.25346,418.196,-39.2811,-8.48104,30.9254,36.5763
1980-01-20 02:35:45,1,-5.84286,4.45714,2.18571,0.325764,1,1,77948.9,116741.0,1691,0.88713932,2.9215126,346.64844,292.76563,2.47162,420.683,-45.0888,-7.20572,35.8726,43.9004
1980-01-20 02:37:06,1,-5.6,4.625,1.9,0.24367,1,1,59675.0,73157.6,1691,0.88714725,2.9213753,346.63647,292.76538,2.13164,423.007,-43.1543,-12.8266,31.3873,34.7526
1980-01-20 02:38:27,1,-5.35,4.7875,1.4,0.22044,1,1,79829.0,112316.0,1691,0.88715124,2.9213066,346.62451,292.76514,2.53128,422.198,-43.5893,-18.7373,36.3026,43.0605
1980-01-20 02:39:48,1,-5.64286,4.72857,2.58571,0.239046,1,1,100960.0,110858.0,1691,0.88715523,2.9212379,346.60889,292.76514,2.25186,420.515,-44.7551,-5.9085,40.8255,42.7801
1980-01-20 02:41:09,1,-5.42857,4.6,2.7,0.26573,1,1,108103.0,113586.0,1691,0.88716316,2.9211006,346.59692,292.76489,2.15824,423.479,-47.6719,-9.22027,42.2451,43.3033
1980-01-20 02:42:30,1,-5.61429,4.34286,2.75714,0.245781,1,1,158285.0,141337.0,1691,0.88716716,2.921032,346.58521,292.76489,2.5151,419.921,-43.106,-4.46599,51.1185,48.3042
1980-01-20 02:43:51,1,-5.6,4.25,3.1,0.380789,1,1,113897.0,171422.0,1691,0.88717115,2.9209633,346.57324,292.76465,2.11755,432.73,-54.1259,2.01116,43.3625,53.1975
1980-01-20 02:45:12,1,-5.55,4.475,2.95,0.248747,1,1,104007.0,162710.0,1691,0.88717908,2.920826,346.56128,292.7644,1.7007,437.728,-56.1296,3.01366,41.4371,51.8281
1980-01-20 02:46:33,1,-5.22857,4.5,3.21429,0.338665,1,1,119030.0,187198.0,1691,0.88718307,2.9207563,346.54956,292.7644,2.20383,430.598,-53.5209,-1.43986,44.3288,55.5915
1980-01-20 02:47:54,1,-5.35,4.25,2.85,0.327872,1,1,91707.9,104270.0,1691,0.887187,2.9206877,346.53369,292.76416,2.12633,417.79,-41.8055,-0.080968,38.91,41.4895
1980-01-20 02:49:15,1,-5.3875,4.2625,3.05,0.344147,1,1,103820.0,115604.0,1691,0.88719499,2.9205503,346.52197,292.76416,2.39804,414.465,-42.8338,2.4284,41.3998,43.6861
1980-01-20 02:50:36,1,-5.27143,4.35714,2.75714,0.289968,1,1,118487.0,133424.0,1691,0.88719898,2.9204817,346.51001,292.76392,2.18435,425.331,-38.1333,-2.22724,44.2276,46.9326
1980-01-20 02:51:57,1,-5.34286,4.31429,2.92857,0.320713,1,1,100184.0,126889.0,1691,0.88720292,2.920413,346.49829,292.76392,2.11279,422.078,-47.1571,-3.59186,40.6684,45.7688
1980-01-20 02:53:18,1,-5.28571,4.47143,2.75714,0.2,1,1,103734.0,152720.0,1691,0.88721091,2.9202757,346.48633,292.76367,2.36028,419.743,-45.993,-7.08744,41.3827,50.2119
1980-01-20 02:54:39,1,-5.21429,4.32857,2.52857,0.320077,1,1,78461.6,122985.0,1691,0.88721484,2.920207,346.47437,292.76343,2.19061,413.989,-41.7694,-3.5685,35.9904,45.0592
1980-01-20 02:56:00,1,-5.44286,4.42857,3.61429,0.320713,1,1,82111.3,88448.4,1691,0.88722283,2.9200697,346.4585,292.76318,1.91347,424.948,-42.6302,3.12685,36.8179,38.2123
1980-01-20 02:57:21,1,-5.1625,4.2,3.05,0.349777,1,1,104617.0,108035.0,1691,0.88722676,2.920001,346.44678,292.76318,2.06378,420.907,-45.1021,2.53025,41.5584,42.2318
1980-01-20 02:58:42,1,-5.31429,4.41429,3.21429,0.303718,1,1,102689.0,116003.0,1691,0.88723075,2.9199324,346.43481,292.76294,2.32765,422.597,-42.4263,4.15847,41.1736,43.7615
1980-01-20 03:00:03,1,-5.38571,4.31429,3.55714,0.291373,1,1,106182.0,140924.0,1691,0.88723874,2.919795,346.4231,292.76294,2.12266,426.45,-50.1121,5.35496,41.868,48.2337
1980-01-20 03:01:24,1,-5.22857,4.25714,3.27143,0.359705,1,1,111508.0,117273.0,1691,0.88724267,2.9197254,346.41113,292.7627,2.08052,420.959,-43.4007,3.33095,42.9054,44.0005
1980-01-20 03:02:45,1,-5.175,4.025,3.15,0.266927,1,1,132385.0,147109.0,1691,0.88724667,2.9196568,346.39941,292.7627,2.22573,426.213,-42.0526,5.05803,46.7495,49.2808
1980-01-20 03:04:06,1,-5.2625,4.025,3.1,0.119242,1,1,117778.0,153052.0,1691,0.8872546,2.9195194,346.38745,292.76245,2.3678,425.153,-41.7719,5.92745,44.095,50.2664
1980-01-20 03:05:27,1,-5.025,4.425,3.2,0.27157,1,1,130260.0,145243.0,1691,0.88725859,2.9194508,346.37158,292.76221,2.37945,423.249,-42.5905,2.39579,46.3729,48.9672
1980-01-20 03:06:48,1,-5.0,4.3125,2.9,0.368909,1,1,104478.0,103230.0,1691,0.88726252,2.9193821,346.35986,292.76221,2.31419,421.815,-43.922,2.61665,41.5308,41.2819
1980-01-20 03:08:09,1,-5.04286,4.5,3.1,0.27701,1,1,203392.0,176827.0,1691,0.88727045,2.9192448,346.3479,292.76196,2.69066,422.13,-37.797,-1.32892,57.9462,54.0296
1980-01-20 03:09:30,-1,nan,nan,nan,nan,1,4,nan,nan,1691,0.88727444,2.9191761,346.33618,292.76196,nan,nan,nan,nan,nan,nan
1980-01-20 03:10:51,1,-5.475,4.15,1.35,0.352668,1,1,123697.0,126485.0,1691,0.88727844,2.9191074,346.32422,292.76172,2.15141,430.037,-52.6352,-10.4157,45.1894,45.6959
1980-01-20 03:12:12,1,-5.14286,4.24286,1.38571,0.325764,1,1,194893.0,171835.0,1691,0.88728637,2.9189701,346.31226,292.76147,2.44288,421.442,-50.0417,-9.2261,56.7225,53.2615